Hourly Weather Smykov

Today, 16 January, Saturday

Time Temperature Precipitation Wind Pressure Humidity
00:00 -2°C° 0 mm 3 mps 745 mmHg 91%
01:00 -2°C° 0 mm 3 mps 745 mmHg 91%
02:00 -2°C° 0 mm 2 mps 745 mmHg 92%
03:00 -3°C° 0 mm 2 mps 745 mmHg 94%
04:00 -3°C° 0 mm 2 mps 745 mmHg 93%
05:00 -3°C° 0 mm 2 mps 745 mmHg 93%
06:00 -4°C° 0 mm 3 mps 746 mmHg 92%
07:00 -2°C° 0.1 mm 3 mps 746 mmHg 93%
08:00 -2°C° 0.1 mm 3 mps 746 mmHg 93%
09:00 -1°C° 0 mm 2 mps 747 mmHg 93%
10:00 -1°C° 0.1 mm 3 mps 747 mmHg 90%
11:00 -1°C° 0.1 mm 3 mps 747 mmHg 86%
12:00 -1°C° 0.1 mm 3 mps 748 mmHg 83%
13:00 -1°C° 0 mm 3 mps 747 mmHg 80%
14:00 -1°C° 0 mm 2 mps 747 mmHg 78%
15:00 -1°C° 0 mm 2 mps 747 mmHg 67%
16:00 -2°C° 0 mm 2 mps 747 mmHg 71%
17:00 0°C° 0 mm 1 mps 747 mmHg 75%
18:00 0°C° 0 mm 1 mps 747 mmHg 79%
19:00 0°C° 0 mm 1 mps 747 mmHg 79%
20:00 0°C° 0 mm 1 mps 747 mmHg 78%
21:00 0°C° 0 mm 1 mps 747 mmHg 78%
22:00 -2°C° 0 mm 2 mps 746 mmHg 77%
23:00 -2°C° 0 mm 3 mps 746 mmHg 77%

Tomorrow, 17 January, Sunday

Time Temperature Precipitation Wind Pressure Humidity
00:00 -3°C° 0 mm 4 mps 746 mmHg 76%
01:00 -3°C° 0 mm 4 mps 745 mmHg 77%
02:00 -4°C° 0 mm 5 mps 744 mmHg 77%
03:00 -4°C° 0 mm 6 mps 744 mmHg 77%
04:00 -4°C° 0 mm 7 mps 743 mmHg 78%
05:00 -4°C° 0 mm 7 mps 743 mmHg 79%
06:00 -5°C° 0 mm 8 mps 742 mmHg 79%
07:00 -5°C° 0.2 mm 8 mps 741 mmHg 81%
08:00 -5°C° 0.2 mm 8 mps 741 mmHg 83%
09:00 -5°C° 0.2 mm 9 mps 740 mmHg 85%
10:00 -5°C° 0 mm 9 mps 740 mmHg 83%
11:00 -4°C° 0 mm 10 mps 739 mmHg 80%
12:00 -4°C° 0 mm 10 mps 739 mmHg 78%
13:00 -3°C° 0.1 mm 9 mps 738 mmHg 78%
14:00 -2°C° 0.1 mm 8 mps 738 mmHg 79%
15:00 -2°C° 0.1 mm 7 mps 738 mmHg 80%
16:00 -2°C° 0 mm 7 mps 738 mmHg 81%
17:00 -3°C° 0 mm 7 mps 738 mmHg 83%
18:00 -4°C° 0 mm 8 mps 738 mmHg 85%
19:00 -3°C° 0 mm 7 mps 738 mmHg 84%
20:00 -3°C° 0 mm 6 mps 737 mmHg 83%
21:00 -3°C° 0 mm 6 mps 737 mmHg 82%
22:00 -2°C° 0.3 mm 5 mps 737 mmHg 85%
23:00 -2°C° 0.3 mm 4 mps 737 mmHg 88%

Day after tomorrow, 18 January, Monday

Time Temperature Precipitation Wind Pressure Humidity
00:00 -2°C° 0.3 mm 3 mps 738 mmHg 91%
01:00 -2°C° 2.1 mm 3 mps 738 mmHg 93%
02:00 -2°C° 2.1 mm 3 mps 738 mmHg 94%
03:00 -3°C° 2.1 mm 4 mps 739 mmHg 96%
04:00 -2°C° 0.3 mm 3 mps 739 mmHg 96%
05:00 -4°C° 0.3 mm 3 mps 740 mmHg 96%
06:00 -3°C° 0.3 mm 2 mps 740 mmHg 96%
07:00 -5°C° 0.1 mm 4 mps 741 mmHg 95%
08:00 -6°C° 0.1 mm 6 mps 742 mmHg 94%
09:00 -8°C° 0.1 mm 8 mps 743 mmHg 93%
10:00 -9°C° 0 mm 7 mps 744 mmHg 92%
11:00 -9°C° 0 mm 7 mps 744 mmHg 91%
12:00 -9°C° 0 mm 6 mps 744 mmHg 91%
13:00 -9°C° 0 mm 6 mps 745 mmHg 90%
14:00 -8°C° 0 mm 5 mps 745 mmHg 90%
15:00 -8°C° 0 mm 5 mps 745 mmHg 90%
16:00 -9°C° 0 mm 4 mps 746 mmHg 91%
17:00 -9°C° 0 mm 4 mps 746 mmHg 91%
18:00 -8°C° 0 mm 3 mps 747 mmHg 91%
19:00 -8°C° 0 mm 3 mps 747 mmHg 92%
20:00 -9°C° 0 mm 3 mps 747 mmHg 93%
21:00 -8°C° 0 mm 2 mps 748 mmHg 93%
22:00 -8°C° 0 mm 2 mps 748 mmHg 93%
23:00 -8°C° 0 mm 2 mps 748 mmHg 94%

19 January, Tuesday

Time Temperature Precipitation Wind Pressure Humidity
00:00 -8°C° 0 mm 2 mps 748 mmHg 94%
01:00 -8°C° 0 mm 2 mps 748 mmHg 94%
02:00 -8°C° 0 mm 2 mps 749 mmHg 93%
03:00 -7°C° 0 mm 1 mps 749 mmHg 93%
04:00 -7°C° 0 mm 1 mps 749 mmHg 93%
05:00 -8°C° 0 mm 2 mps 748 mmHg 93%
06:00 -8°C° 0 mm 2 mps 748 mmHg 93%
07:00 -7°C° 0 mm 1 mps 748 mmHg 92%
08:00 -6°C° 0 mm 1 mps 749 mmHg 91%
09:00 -6°C° 0 mm 1 mps 749 mmHg 90%
10:00 -6°C° 0.1 mm 2 mps 748 mmHg 90%
11:00 -5°C° 0.1 mm 2 mps 748 mmHg 90%
12:00 -5°C° 0.1 mm 3 mps 748 mmHg 90%
13:00 -5°C° 0 mm 3 mps 748 mmHg 87%
14:00 -6°C° 0 mm 3 mps 748 mmHg 85%
15:00 -6°C° 0 mm 3 mps 748 mmHg 82%
16:00 -6°C° 0 mm 3 mps 748 mmHg 86%
17:00 -6°C° 0 mm 2 mps 749 mmHg 90%
18:00 -7°C° 0 mm 2 mps 749 mmHg 93%
19:00 -8°C° 0.1 mm 3 mps 749 mmHg 93%
20:00 -8°C° 0.1 mm 3 mps 750 mmHg 94%
21:00 -8°C° 0.1 mm 3 mps 750 mmHg 94%
22:00 -8°C° 0.1 mm 3 mps 751 mmHg 94%
23:00 -8°C° 0.1 mm 2 mps 751 mmHg 95%

20 January, Wednesday

Time Temperature Precipitation Wind Pressure Humidity
00:00 -9°C° 0.1 mm 2 mps 751 mmHg 95%
01:00 -9°C° 0 mm 2 mps 751 mmHg 95%
02:00 -10°C° 0 mm 2 mps 752 mmHg 95%
03:00 -10°C° 0 mm 2 mps 752 mmHg 95%
04:00 -10°C° 0 mm 1 mps 752 mmHg 95%
05:00 -11°C° 0 mm 1 mps 753 mmHg 96%
06:00 -11°C° 0 mm 1 mps 753 mmHg 96%
07:00 -11°C° 0 mm 1 mps 753 mmHg 95%
08:00 -11°C° 0 mm 1 mps 754 mmHg 95%
09:00 -11°C° 0 mm 1 mps 754 mmHg 94%
10:00 -10°C° 0 mm 1 mps 754 mmHg 92%
11:00 -10°C° 0 mm 2 mps 754 mmHg 89%
12:00 -9°C° 0 mm 2 mps 754 mmHg 86%
13:00 -8°C° 0 mm 2 mps 754 mmHg 86%
14:00 -8°C° 0 mm 2 mps 754 mmHg 87%
15:00 -8°C° 0 mm 2 mps 754 mmHg 87%
16:00 -9°C° 0 mm 2 mps 755 mmHg 89%
17:00 -10°C° 0 mm 2 mps 755 mmHg 92%
18:00 -10°C° 0 mm 1 mps 756 mmHg 95%
19:00 -10°C° 0 mm 1 mps 756 mmHg 95%
20:00 -11°C° 0 mm 1 mps 756 mmHg 95%
21:00 -11°C° 0 mm 1 mps 757 mmHg 95%
22:00 -11°C° 0 mm 1 mps 757 mmHg 95%
23:00 -11°C° 0 mm 1 mps 757 mmHg 94%

21 January, Thursday

Time Temperature Precipitation Wind Pressure Humidity
00:00 -11°C° 0 mm 1 mps 757 mmHg 94%
01:00 -11°C° 0 mm 1 mps 757 mmHg 94%
02:00 -11°C° 0 mm 1 mps 758 mmHg 94%
03:00 -11°C° 0 mm 1 mps 758 mmHg 94%
04:00 -11°C° 0 mm 1 mps 758 mmHg 93%
05:00 -11°C° 0 mm 1 mps 758 mmHg 93%
06:00 -11°C° 0 mm 1 mps 758 mmHg 92%
07:00 -10°C° 0 mm 1 mps 759 mmHg 91%
08:00 -9°C° 0 mm 1 mps 759 mmHg 90%
09:00 -9°C° 0 mm 1 mps 759 mmHg 90%
10:00 -7°C° 0 mm 1 mps 759 mmHg 87%
11:00 -4°C° 0 mm 1 mps 759 mmHg 84%
12:00 -3°C° 0 mm 1 mps 759 mmHg 81%
13:00 -2°C° 0 mm 1 mps 759 mmHg 82%
14:00 -2°C° 0 mm 1 mps 759 mmHg 83%
15:00 -1°C° 0 mm 1 mps 758 mmHg 84%
16:00 -3°C° 0 mm 2 mps 759 mmHg 84%
17:00 -4°C° 0 mm 2 mps 759 mmHg 83%
18:00 -4°C° 0 mm 2 mps 759 mmHg 83%
19:00 -4°C° 0 mm 2 mps 759 mmHg 81%
20:00 -5°C° 0 mm 3 mps 759 mmHg 79%
21:00 -5°C° 0 mm 3 mps 759 mmHg 77%
22:00 -5°C° 0 mm 3 mps 759 mmHg 76%
23:00 -5°C° 0 mm 3 mps 758 mmHg 75%
Show more